User: anonymous   Login
Location: Unspecified
(0.0000°N, 0.0000°E)
Time: 09:17:35
(UTC+02:00)
Language:

Cosmos 2237 Rocket - Orbit

View from above orbital plane
View from above orbital plane
View from above satellite
View from above satellite

Ground track
Ground track

The orbit data is extracted from the following two-line orbital elements,

1 22566U 93016B   17291.85228364  .00000033  00000-0  41551-4 0  9994
2 22566  71.0064 167.3446 0012163 299.1205  60.8700 14.14948072268763
Epoch (UTC): 18 October 2017 20:27:17
Eccentricity: 0.0012163
inclination: 71.0064°
perigee height: 834 km
apogee height: 851 km
right ascension of ascending node: 167.3446°
argument of perigee: 299.1205°
revolutions per day: 14.14948072
mean anomaly at epoch: 60.8700°
orbit number at epoch: 26876

The dashed part of the orbit path shows where the satellite is in the earth's shadow,  

DLR